Time,TemperatureF,DewpointF,PressureIn,WindDirection,WindDirectionDegrees,WindSpeedMPH,WindSpeedGustMPH,Humidity,HourlyPrecipIn,Conditions,Clouds,dailyrainin,SoftwareType,DateUTC
2013-07-15 00:01:00,74.8,60.5,30.01,ENE,64,0.0,0.0,61,0.00,,,0.00,VWS V13.01,2013-07-15 05:01:00,
2013-07-15 00:06:00,74.8,60.5,30.01,ENE,64,0.0,0.0,61,0.00,,,0.00,VWS V13.01,2013-07-15 05:06:00,
2013-07-15 00:11:00,74.6,60.3,30.01,ENE,64,0.0,0.0,61,0.00,,,0.00,VWS V13.01,2013-07-15 05:11:00,
2013-07-15 00:16:00,74.6,60.3,30.01,ENE,64,0.0,0.0,61,0.00,,,0.00,VWS V13.01,2013-07-15 05:16:00,
2013-07-15 00:21:00,74.5,60.2,30.01,ENE,64,0.0,0.0,61,0.00,,,0.00,VWS V13.01,2013-07-15 05:21:00,
2013-07-15 00:26:00,74.3,60.4,30.01,ENE,64,0.0,0.0,62,0.00,,,0.00,VWS V13.01,2013-07-15 05:26:00,
2013-07-15 00:31:00,74.1,60.3,30.01,ENE,64,0.0,0.0,62,0.00,,,0.00,VWS V13.01,2013-07-15 05:31:00,
2013-07-15 00:36:00,73.9,61.0,30.01,NE,47,2.7,3.1,64,0.00,,,0.00,VWS V13.01,2013-07-15 05:36:00,
2013-07-15 00:41:00,73.9,61.0,30.01,NE,41,0.0,2.2,64,0.00,,,0.00,VWS V13.01,2013-07-15 05:41:00,
2013-07-15 00:46:00,73.7,60.8,29.98,NE,41,0.0,0.0,64,0.00,,,0.00,VWS V13.01,2013-07-15 05:46:00,
2013-07-15 00:51:00,73.7,60.8,29.98,NE,41,0.0,0.0,64,0.00,,,0.00,VWS V13.01,2013-07-15 05:51:00,
2013-07-15 00:56:00,73.9,61.0,29.98,ENE,65,0.0,0.0,64,0.00,,,0.00,VWS V13.01,2013-07-15 05:56:00,
2013-07-15 01:01:00,74.1,60.7,30.01,ENE,65,0.0,0.0,63,0.00,,,0.00,VWS V13.01,2013-07-15 06:01:00,
2013-07-15 01:06:00,74.1,60.7,30.01,ENE,65,0.0,0.0,63,0.00,,,0.00,VWS V13.01,2013-07-15 06:06:00,
2013-07-15 01:11:00,74.3,60.9,30.01,ENE,68,0.0,3.1,63,0.00,,,0.00,VWS V13.01,2013-07-15 06:11:00,
2013-07-15 01:16:00,74.5,61.0,30.01,East,79,2.7,2.7,63,0.00,,,0.00,VWS V13.01,2013-07-15 06:16:00,
2013-07-15 01:21:00,74.8,61.4,30.01,East,96,0.0,2.7,63,0.00,,,0.00,VWS V13.01,2013-07-15 06:21:00,
2013-07-15 01:26:00,75.2,61.3,30.01,ESE,112,3.1,3.1,62,0.00,,,0.00,VWS V13.01,2013-07-15 06:26:00,
2013-07-15 01:30:00,75.4,61.5,30.01,ESE,113,0.0,0.0,62,0.00,,,0.00,VWS V13.01,2013-07-15 06:30:00,
2013-07-15 01:35:00,75.4,61.5,30.01,ESE,120,2.7,3.6,62,0.00,,,0.00,VWS V13.01,2013-07-15 06:35:00,
2013-07-15 01:40:00,75.5,61.6,30.01,ENE,74,2.7,2.7,62,0.00,,,0.00,VWS V13.01,2013-07-15 06:40:00,
2013-07-15 01:45:00,75.5,61.6,30.01,ESE,110,0.0,0.0,62,0.00,,,0.00,VWS V13.01,2013-07-15 06:45:00,
2013-07-15 01:50:00,75.5,61.6,30.01,ENE,67,2.7,4.0,62,0.00,,,0.00,VWS V13.01,2013-07-15 06:50:00,
2013-07-15 01:55:00,75.5,62.1,30.01,East,93,4.0,4.0,63,0.00,,,0.00,VWS V13.01,2013-07-15 06:55:00,
2013-07-15 02:00:00,75.5,62.1,30.01,ENE,67,2.7,4.0,63,0.00,,,0.00,VWS V13.01,2013-07-15 07:00:00,
2013-07-15 02:01:00,75.5,62.1,30.01,East,85,3.1,4.0,63,0.00,,,0.00,VWS V13.01,2013-07-15 07:01:00,
2013-07-15 02:06:00,75.5,62.1,30.01,NE,36,5.4,6.3,63,0.00,,,0.00,VWS V13.01,2013-07-15 07:06:00,
2013-07-15 02:11:00,75.5,62.1,30.01,NE,54,3.6,4.9,63,0.00,,,0.00,VWS V13.01,2013-07-15 07:11:00,
2013-07-15 02:15:00,75.4,62.3,30.01,NE,43,2.7,3.6,64,0.00,,,0.00,VWS V13.01,2013-07-15 07:15:00,
2013-07-15 02:20:00,75.2,62.2,30.01,ENE,62,2.7,4.0,64,0.00,,,0.00,VWS V13.01,2013-07-15 07:20:00,
2013-07-15 02:25:00,75.0,62.0,30.01,East,84,3.6,3.6,64,0.00,,,0.00,VWS V13.01,2013-07-15 07:25:00,
2013-07-15 02:30:00,75.0,62.5,30.01,NE,46,0.0,2.2,65,0.00,,,0.00,VWS V13.01,2013-07-15 07:30:00,
2013-07-15 02:35:00,74.8,62.3,30.01,NE,45,4.0,5.8,65,0.00,,,0.00,VWS V13.01,2013-07-15 07:35:00,
2013-07-15 02:40:00,74.8,62.3,30.01,ENE,66,0.0,0.0,65,0.00,,,0.00,VWS V13.01,2013-07-15 07:40:00,
2013-07-15 02:45:00,74.6,62.5,30.01,NE,41,2.7,3.1,66,0.00,,,0.00,VWS V13.01,2013-07-15 07:45:00,
2013-07-15 02:50:00,74.5,62.4,30.01,NE,51,2.7,2.7,66,0.00,,,0.00,VWS V13.01,2013-07-15 07:50:00,
2013-07-15 02:55:00,74.3,62.6,30.01,ENE,72,0.0,3.1,67,0.00,,,0.00,VWS V13.01,2013-07-15 07:55:00,
2013-07-15 03:00:00,74.3,62.6,30.01,NNE,21,3.1,3.1,67,0.00,,,0.00,VWS V13.01,2013-07-15 08:00:00,
2013-07-15 03:05:00,74.1,62.9,30.01,NNE,29,0.0,0.0,68,0.00,,,0.00,VWS V13.01,2013-07-15 08:05:00,
2013-07-15 03:10:00,73.9,62.7,30.01,NE,36,3.1,3.1,68,0.00,,,0.00,VWS V13.01,2013-07-15 08:10:00,
2013-07-15 03:15:00,73.7,63.0,30.01,NNE,19,3.6,3.6,69,0.00,,,0.00,VWS V13.01,2013-07-15 08:15:00,
2013-07-15 03:20:00,73.6,62.8,30.01,NE,38,3.6,3.6,69,0.00,,,0.00,VWS V13.01,2013-07-15 08:20:00,
2013-07-15 03:25:00,73.6,63.2,30.01,NNE,30,2.7,3.1,70,0.00,,,0.00,VWS V13.01,2013-07-15 08:25:00,
2013-07-15 03:30:00,73.4,63.4,30.01,NE,43,2.7,2.7,71,0.00,,,0.00,VWS V13.01,2013-07-15 08:30:00,
2013-07-15 03:35:00,73.2,63.2,30.01,NE,40,3.6,3.6,71,0.00,,,0.00,VWS V13.01,2013-07-15 08:35:00,
2013-07-15 03:40:00,73.2,63.6,30.01,NNE,20,3.1,3.6,72,0.00,,,0.00,VWS V13.01,2013-07-15 08:40:00,
2013-07-15 03:45:00,73.2,63.6,30.01,ENE,57,3.1,4.9,72,0.00,,,0.00,VWS V13.01,2013-07-15 08:45:00,
2013-07-15 03:50:00,73.0,63.9,30.01,NNE,20,2.7,4.0,73,0.00,,,0.00,VWS V13.01,2013-07-15 08:50:00,
2013-07-15 03:55:00,73.0,63.9,30.01,NNE,26,3.6,3.6,73,0.00,,,0.00,VWS V13.01,2013-07-15 08:55:00,
2013-07-15 04:00:00,72.8,63.7,30.01,NE,34,3.6,4.0,73,0.00,,,0.00,VWS V13.01,2013-07-15 09:00:00,
2013-07-15 04:05:00,72.8,63.7,30.01,NNE,26,2.2,2.2,73,0.00,,,0.00,VWS V13.01,2013-07-15 09:05:00,
2013-07-15 04:10:00,72.7,63.9,30.01,NE,38,2.2,3.1,74,0.00,,,0.00,VWS V13.01,2013-07-15 09:10:00,
2013-07-15 04:15:00,72.5,64.1,30.01,NE,45,2.7,3.1,75,0.00,,,0.00,VWS V13.01,2013-07-15 09:15:00,
2013-07-15 04:20:00,72.3,63.9,30.01,NNE,27,3.1,3.1,75,0.00,,,0.00,VWS V13.01,2013-07-15 09:20:00,
2013-07-15 04:25:00,72.3,64.3,30.01,NNE,28,4.0,4.0,76,0.00,,,0.00,VWS V13.01,2013-07-15 09:25:00,
2013-07-15 04:30:00,72.1,64.1,30.01,ENE,61,2.7,3.6,76,0.00,,,0.00,VWS V13.01,2013-07-15 09:30:00,
2013-07-15 04:35:00,72.1,64.1,30.01,NE,48,0.0,3.1,76,0.00,,,0.00,VWS V13.01,2013-07-15 09:35:00,
2013-07-15 04:40:00,72.1,64.1,30.01,NNE,32,2.2,3.1,76,0.00,,,0.00,VWS V13.01,2013-07-15 09:40:00,
2013-07-15 04:45:00,71.9,64.0,30.01,NE,53,0.0,3.6,76,0.00,,,0.00,VWS V13.01,2013-07-15 09:45:00,
2013-07-15 04:50:00,71.9,64.3,30.01,ENE,61,0.0,0.0,77,0.00,,,0.00,VWS V13.01,2013-07-15 09:50:00,
2013-07-15 04:55:00,71.9,64.3,30.01,ENE,60,0.0,0.0,77,0.00,,,0.00,VWS V13.01,2013-07-15 09:55:00,
2013-07-15 05:00:00,71.8,64.2,30.01,NE,40,0.0,0.0,77,0.00,,,0.00,VWS V13.01,2013-07-15 10:00:00,
2013-07-15 05:05:00,71.6,64.4,30.01,NE,50,0.0,0.0,78,0.00,,,0.00,VWS V13.01,2013-07-15 10:05:00,
2013-07-15 05:10:00,71.6,64.4,30.01,NE,48,0.0,0.0,78,0.00,,,0.00,VWS V13.01,2013-07-15 10:10:00,
2013-07-15 05:15:00,71.6,64.4,30.01,NNE,27,0.0,0.0,78,0.00,,,0.00,VWS V13.01,2013-07-15 10:15:00,
2013-07-15 05:20:00,71.6,64.4,30.01,ESE,113,0.0,0.0,78,0.00,,,0.00,VWS V13.01,2013-07-15 10:20:00,
2013-07-15 05:25:00,71.4,64.2,30.01,ESE,113,0.0,0.0,78,0.00,,,0.00,VWS V13.01,2013-07-15 10:25:00,
2013-07-15 05:30:00,71.4,64.2,30.04,ESE,117,0.0,0.0,78,0.00,,,0.00,VWS V13.01,2013-07-15 10:30:00,
2013-07-15 05:35:00,71.4,64.2,30.04,ENE,75,0.0,0.0,78,0.00,,,0.00,VWS V13.01,2013-07-15 10:35:00,
2013-07-15 05:40:00,71.4,64.2,30.04,East,80,0.0,0.0,78,0.00,,,0.00,VWS V13.01,2013-07-15 10:40:00,
2013-07-15 05:45:00,71.2,64.4,30.04,East,85,0.0,0.0,79,0.00,,,0.00,VWS V13.01,2013-07-15 10:45:00,
2013-07-15 05:50:00,71.2,64.4,30.04,East,85,0.0,0.0,79,0.00,,,0.00,VWS V13.01,2013-07-15 10:50:00,
2013-07-15 05:55:00,71.2,64.7,30.04,East,79,0.0,0.0,80,0.00,,,0.00,VWS V13.01,2013-07-15 10:55:00,
2013-07-15 06:00:00,71.0,64.6,30.04,ENE,65,2.7,3.1,80,0.00,,,0.00,VWS V13.01,2013-07-15 11:00:00,
2013-07-15 06:05:00,71.2,65.1,30.04,ENE,65,3.1,3.1,81,0.00,,,0.00,VWS V13.01,2013-07-15 11:05:00,
2013-07-15 06:10:00,71.2,65.1,30.04,ENE,75,2.2,3.1,81,0.00,,,0.00,VWS V13.01,2013-07-15 11:10:00,
2013-07-15 06:15:00,71.4,64.9,30.04,East,80,3.1,3.1,80,0.00,,,0.00,VWS V13.01,2013-07-15 11:15:00,
2013-07-15 06:20:00,71.6,65.1,30.04,ENE,70,2.7,3.1,80,0.00,,,0.00,VWS V13.01,2013-07-15 11:20:00,
2013-07-15 06:25:00,71.6,64.7,30.04,ENE,66,2.7,3.1,79,0.00,,,0.00,VWS V13.01,2013-07-15 11:25:00,
2013-07-15 06:30:00,71.6,64.7,30.07,East,83,3.6,3.6,79,0.00,,,0.00,VWS V13.01,2013-07-15 11:30:00,
2013-07-15 06:35:00,71.8,64.9,30.07,NE,55,3.1,4.0,79,0.00,,,0.00,VWS V13.01,2013-07-15 11:35:00,
2013-07-15 06:40:00,71.8,64.9,30.07,ENE,70,3.6,3.6,79,0.00,,,0.00,VWS V13.01,2013-07-15 11:40:00,
2013-07-15 06:45:00,71.8,64.9,30.04,East,85,3.1,3.6,79,0.00,,,0.00,VWS V13.01,2013-07-15 11:45:00,
2013-07-15 06:50:00,71.8,64.9,30.04,NE,36,4.0,4.9,79,0.00,,,0.00,VWS V13.01,2013-07-15 11:50:00,
2013-07-15 06:55:00,71.9,65.1,30.04,East,82,6.3,6.3,79,0.00,,,0.00,VWS V13.01,2013-07-15 11:55:00,
2013-07-15 07:00:00,72.1,64.9,30.07,ENE,75,5.4,6.7,78,0.00,,,0.00,VWS V13.01,2013-07-15 12:00:00,
2013-07-15 07:05:00,72.1,64.9,30.07,NE,53,4.0,5.4,78,0.00,,,0.00,VWS V13.01,2013-07-15 12:05:00,
2013-07-15 07:10:00,72.1,64.9,30.07,ENE,74,4.9,7.6,78,0.00,,,0.00,VWS V13.01,2013-07-15 12:10:00,
2013-07-15 07:15:00,72.3,65.1,30.07,ENE,70,3.6,3.6,78,0.00,,,0.00,VWS V13.01,2013-07-15 12:15:00,
2013-07-15 07:20:00,72.3,65.1,30.07,ENE,57,3.6,3.6,78,0.00,,,0.00,VWS V13.01,2013-07-15 12:20:00,
2013-07-15 07:25:00,72.5,65.2,30.07,East,80,6.3,6.3,78,0.00,,,0.00,VWS V13.01,2013-07-15 12:25:00,
2013-07-15 07:30:00,72.5,65.2,30.07,East,85,3.1,3.1,78,0.00,,,0.00,VWS V13.01,2013-07-15 12:30:00,
2013-07-15 07:35:00,72.5,65.2,30.07,East,86,4.0,4.0,78,0.00,,,0.00,VWS V13.01,2013-07-15 12:35:00,
2013-07-15 07:40:00,72.7,65.0,30.07,NE,55,0.0,2.7,77,0.00,,,0.00,VWS V13.01,2013-07-15 12:40:00,
2013-07-15 07:45:00,72.7,65.4,30.07,East,99,3.1,3.1,78,0.00,,,0.00,VWS V13.01,2013-07-15 12:45:00,
2013-07-15 07:50:00,72.7,65.4,30.07,East,100,3.6,3.6,78,0.00,,,0.00,VWS V13.01,2013-07-15 12:50:00,
2013-07-15 07:55:00,72.8,65.2,30.07,ESE,121,4.9,5.4,77,0.00,,,0.00,VWS V13.01,2013-07-15 12:55:00,
2013-07-15 08:00:00,72.8,64.8,30.07,NE,44,5.4,10.5,76,0.00,,,0.00,VWS V13.01,2013-07-15 13:00:00,
2013-07-15 08:05:00,72.8,65.2,30.07,SE,132,3.6,4.0,77,0.00,,,0.00,VWS V13.01,2013-07-15 13:05:00,
2013-07-15 08:10:00,72.8,64.8,30.07,East,79,10.5,10.5,76,0.00,,,0.00,VWS V13.01,2013-07-15 13:10:00,
2013-07-15 08:15:00,73.0,65.4,30.10,NE,44,4.0,5.4,77,0.00,,,0.00,VWS V13.01,2013-07-15 13:15:00,
2013-07-15 08:20:00,73.4,65.0,30.10,East,99,5.4,5.4,75,0.00,,,0.00,VWS V13.01,2013-07-15 13:20:00,
2013-07-15 08:25:00,73.7,64.6,30.10,ENE,71,5.8,7.6,73,0.00,,,0.00,VWS V13.01,2013-07-15 13:25:00,
2013-07-15 08:30:00,73.9,64.7,30.10,East,90,6.3,6.3,73,0.00,,,0.00,VWS V13.01,2013-07-15 13:30:00,
2013-07-15 08:35:00,74.1,64.9,30.10,NE,40,3.6,4.0,73,0.00,,,0.00,VWS V13.01,2013-07-15 13:35:00,
2013-07-15 08:40:00,74.3,65.1,30.10,East,91,4.0,4.9,73,0.00,,,0.00,VWS V13.01,2013-07-15 13:40:00,
2013-07-15 08:45:00,75.0,65.0,30.10,ENE,60,3.6,4.9,71,0.00,,,0.00,VWS V13.01,2013-07-15 13:45:00,
2013-07-15 08:50:00,75.4,64.1,30.10,ESE,119,5.4,7.6,68,0.00,,,0.00,VWS V13.01,2013-07-15 13:50:00,
2013-07-15 08:55:00,75.7,64.4,30.10,SSE,154,3.1,5.8,68,0.00,,,0.00,VWS V13.01,2013-07-15 13:55:00,
2013-07-15 09:00:00,75.7,64.0,30.10,ESE,119,3.6,4.5,67,0.00,,,0.00,VWS V13.01,2013-07-15 14:00:00,
2013-07-15 09:05:00,75.7,64.0,30.10,ESE,121,5.4,5.8,67,0.00,,,0.00,VWS V13.01,2013-07-15 14:05:00,
2013-07-15 09:10:00,75.5,63.8,30.10,ESE,114,5.8,6.3,67,0.00,,,0.00,VWS V13.01,2013-07-15 14:10:00,
2013-07-15 09:15:00,75.4,63.7,30.10,ENE,70,6.3,6.3,67,0.00,,,0.00,VWS V13.01,2013-07-15 14:15:00,
2013-07-15 09:20:00,75.5,63.8,30.10,East,88,3.6,4.9,67,0.00,,,0.00,VWS V13.01,2013-07-15 14:20:00,
2013-07-15 09:25:00,75.9,64.2,30.10,NE,50,5.8,5.8,67,0.00,,,0.00,VWS V13.01,2013-07-15 14:25:00,
2013-07-15 09:30:00,76.1,63.9,30.10,SE,136,3.1,4.0,66,0.00,,,0.00,VWS V13.01,2013-07-15 14:30:00,
2013-07-15 09:35:00,76.3,63.6,30.10,ENE,62,3.1,5.8,65,0.00,,,0.00,VWS V13.01,2013-07-15 14:35:00,
2013-07-15 09:39:00,76.8,63.3,30.10,East,81,6.3,8.3,63,0.00,,,0.00,VWS V13.01,2013-07-15 14:39:00,
2013-07-15 09:44:00,77.7,64.6,30.10,ENE,71,7.2,7.2,64,0.00,,,0.00,VWS V13.01,2013-07-15 14:44:00,
2013-07-15 09:49:00,78.4,64.3,30.10,NNE,14,4.0,5.4,62,0.00,,,0.00,VWS V13.01,2013-07-15 14:49:00,
2013-07-15 09:54:00,78.4,63.4,30.10,ENE,67,3.1,5.4,60,0.00,,,0.00,VWS V13.01,2013-07-15 14:54:00,
2013-07-15 09:59:00,78.4,64.3,30.10,ENE,70,5.4,5.4,62,0.00,,,0.00,VWS V13.01,2013-07-15 14:59:00,
2013-07-15 10:05:00,79.1,64.6,30.10,ENE,64,3.1,6.3,61,0.00,,,0.00,VWS V13.01,2013-07-15 15:05:00,
2013-07-15 10:10:00,79.1,64.1,30.10,ENE,75,4.0,8.3,60,0.00,,,0.00,VWS V13.01,2013-07-15 15:10:00,
2013-07-15 10:15:00,79.1,64.1,30.10,SE,143,3.6,4.9,60,0.00,,,0.00,VWS V13.01,2013-07-15 15:15:00,
2013-07-15 10:20:00,79.5,63.9,30.10,NE,43,6.3,8.1,59,0.00,,,0.00,VWS V13.01,2013-07-15 15:20:00,
2013-07-15 10:25:00,79.1,64.1,30.10,NE,34,3.6,8.1,60,0.00,,,0.00,VWS V13.01,2013-07-15 15:25:00,
2013-07-15 10:30:00,79.5,63.9,30.10,East,99,3.6,5.8,59,0.00,,,0.00,VWS V13.01,2013-07-15 15:30:00,
2013-07-15 10:35:00,80.2,64.1,30.10,SE,126,4.5,7.6,58,0.00,,,0.00,VWS V13.01,2013-07-15 15:35:00,
2013-07-15 10:40:00,80.8,64.1,30.10,East,98,5.4,6.3,57,0.00,,,0.00,VWS V13.01,2013-07-15 15:40:00,
2013-07-15 10:45:00,80.8,64.1,30.10,NE,51,4.0,5.4,57,0.00,,,0.00,VWS V13.01,2013-07-15 15:45:00,
2013-07-15 10:50:00,81.1,64.5,30.10,NNW,330,4.5,4.5,57,0.00,,,0.00,VWS V13.01,2013-07-15 15:50:00,
2013-07-15 10:55:00,81.1,64.5,30.10,East,95,5.8,5.8,57,0.00,,,0.00,VWS V13.01,2013-07-15 15:55:00,
2013-07-15 11:00:00,81.5,65.3,30.10,East,82,5.4,5.4,58,0.00,,,0.00,VWS V13.01,2013-07-15 16:00:00,
2013-07-15 11:05:00,82.0,63.8,30.10,East,97,10.5,10.5,54,0.00,,,0.00,VWS V13.01,2013-07-15 16:05:00,
2013-07-15 11:11:00,82.0,63.8,30.10,NE,46,5.8,5.8,54,0.00,,,0.00,VWS V13.01,2013-07-15 16:11:00,
2013-07-15 11:16:00,82.7,64.4,30.10,NNE,28,5.4,5.8,54,0.00,,,0.00,VWS V13.01,2013-07-15 16:16:00,
2013-07-15 11:21:00,82.9,64.6,30.10,NE,39,3.6,3.6,54,0.00,,,0.00,VWS V13.01,2013-07-15 16:21:00,
2013-07-15 11:26:00,83.1,64.8,30.10,NE,35,5.8,5.8,54,0.00,,,0.00,VWS V13.01,2013-07-15 16:26:00,
2013-07-15 11:31:00,83.3,64.9,30.10,ESE,114,7.2,7.2,54,0.00,,,0.00,VWS V13.01,2013-07-15 16:31:00,
2013-07-15 11:36:00,83.3,64.4,30.10,NE,39,8.1,8.1,53,0.00,,,0.00,VWS V13.01,2013-07-15 16:36:00,
2013-07-15 11:41:00,82.9,64.1,30.10,NE,43,5.4,5.4,53,0.00,,,0.00,VWS V13.01,2013-07-15 16:41:00,
2013-07-15 11:46:00,82.9,63.5,30.10,ENE,61,3.6,4.0,52,0.00,,,0.00,VWS V13.01,2013-07-15 16:46:00,
2013-07-15 11:51:00,83.1,64.2,30.10,East,99,3.1,3.1,53,0.00,,,0.00,VWS V13.01,2013-07-15 16:51:00,
2013-07-15 11:56:00,82.9,63.5,30.10,East,95,3.1,5.8,52,0.00,,,0.00,VWS V13.01,2013-07-15 16:56:00,
2013-07-15 12:01:00,82.4,63.5,30.10,East,94,6.3,6.3,53,0.00,,,0.00,VWS V13.01,2013-07-15 17:01:00,
2013-07-15 12:06:00,82.4,64.1,30.10,NE,52,2.7,8.3,54,0.00,,,0.00,VWS V13.01,2013-07-15 17:06:00,
2013-07-15 12:11:00,83.1,64.8,30.10,ESE,118,5.8,6.3,54,0.00,,,0.00,VWS V13.01,2013-07-15 17:11:00,
2013-07-15 12:17:00,83.8,64.3,30.10,ESE,108,2.2,4.0,52,0.00,,,0.00,VWS V13.01,2013-07-15 17:17:00,
2013-07-15 12:22:00,84.0,63.4,30.10,SSE,162,4.0,8.1,50,0.00,,,0.00,VWS V13.01,2013-07-15 17:22:00,
2013-07-15 12:27:00,84.2,64.7,30.10,SSE,147,2.7,6.3,52,0.00,,,0.00,VWS V13.01,2013-07-15 17:27:00,
2013-07-15 12:32:00,85.1,64.9,30.07,SE,136,5.8,5.8,51,0.00,,,0.00,VWS V13.01,2013-07-15 17:32:00,
2013-07-15 12:37:00,85.1,63.8,30.07,ESE,106,5.4,6.3,49,0.00,,,0.00,VWS V13.01,2013-07-15 17:37:00,
2013-07-15 12:42:00,85.1,64.4,30.07,South,186,5.4,5.8,50,0.00,,,0.00,VWS V13.01,2013-07-15 17:42:00,
2013-07-15 12:47:00,84.9,64.8,30.07,SSE,164,2.7,4.0,51,0.00,,,0.00,VWS V13.01,2013-07-15 17:47:00,
2013-07-15 12:52:00,84.9,63.6,30.07,South,187,6.3,10.1,49,0.00,,,0.00,VWS V13.01,2013-07-15 17:52:00,
2013-07-15 12:58:00,84.9,64.2,30.07,SE,127,4.0,6.3,50,0.00,,,0.00,VWS V13.01,2013-07-15 17:58:00,
2013-07-15 13:03:00,85.6,64.9,30.07,ENE,74,3.6,4.0,50,0.00,,,0.00,VWS V13.01,2013-07-15 18:03:00,
2013-07-15 13:08:00,86.2,64.8,30.07,South,184,5.4,5.8,49,0.00,,,0.00,VWS V13.01,2013-07-15 18:08:00,
2013-07-15 13:13:00,86.0,64.6,30.07,ESE,107,5.4,6.3,49,0.00,,,0.00,VWS V13.01,2013-07-15 18:13:00,
2013-07-15 13:18:00,85.8,64.4,30.07,ESE,108,3.1,3.6,49,0.00,,,0.00,VWS V13.01,2013-07-15 18:18:00,
2013-07-15 13:23:00,85.8,63.9,30.07,SE,143,3.6,3.6,48,0.00,,,0.00,VWS V13.01,2013-07-15 18:23:00,
2013-07-15 13:28:00,86.7,64.7,30.07,ENE,73,5.4,5.4,48,0.00,,,0.00,VWS V13.01,2013-07-15 18:28:00,
2013-07-15 13:33:00,86.9,64.8,30.07,SE,133,7.2,7.2,48,0.00,,,0.00,VWS V13.01,2013-07-15 18:33:00,
2013-07-15 13:39:00,86.3,64.3,30.07,East,86,4.0,5.8,48,0.00,,,0.00,VWS V13.01,2013-07-15 18:39:00,
2013-07-15 13:44:00,87.1,65.0,30.04,ENE,77,5.8,6.3,48,0.00,,,0.00,VWS V13.01,2013-07-15 18:44:00,
2013-07-15 13:49:00,86.7,64.7,30.04,East,80,5.8,5.8,48,0.00,,,0.00,VWS V13.01,2013-07-15 18:49:00,
2013-07-15 13:54:00,86.5,64.5,30.04,East,89,4.0,5.8,48,0.00,,,0.00,VWS V13.01,2013-07-15 18:54:00,
2013-07-15 13:59:00,86.7,64.7,30.07,East,92,3.6,5.4,48,0.00,,,0.00,VWS V13.01,2013-07-15 18:59:00,
2013-07-15 14:04:00,87.4,65.3,30.07,South,183,3.6,3.6,48,0.00,,,0.00,VWS V13.01,2013-07-15 19:04:00,
2013-07-15 14:09:00,87.4,64.1,30.07,NNE,20,3.1,6.3,46,0.00,,,0.00,VWS V13.01,2013-07-15 19:09:00,
2013-07-15 14:14:00,87.2,65.2,30.04,ENE,64,5.8,5.8,48,0.00,,,0.00,VWS V13.01,2013-07-15 19:14:00,
2013-07-15 14:19:00,87.4,64.7,30.04,ESE,122,5.8,6.3,47,0.00,,,0.00,VWS V13.01,2013-07-15 19:19:00,
2013-07-15 14:24:00,86.7,64.1,30.04,ENE,78,3.1,5.4,47,0.00,,,0.00,VWS V13.01,2013-07-15 19:24:00,
2013-07-15 14:29:00,86.9,64.8,30.04,ENE,57,2.2,4.0,48,0.00,,,0.00,VWS V13.01,2013-07-15 19:29:00,
2013-07-15 14:34:00,87.6,64.3,30.04,SE,143,5.4,6.3,46,0.00,,,0.00,VWS V13.01,2013-07-15 19:34:00,
2013-07-15 14:39:00,88.0,64.0,30.04,ENE,59,4.9,4.9,45,0.00,,,0.00,VWS V13.01,2013-07-15 19:39:00,
2013-07-15 14:44:00,87.6,64.9,30.04,NE,41,2.7,3.1,47,0.00,,,0.00,VWS V13.01,2013-07-15 19:44:00,
2013-07-15 14:49:00,88.0,63.3,30.04,NNE,25,2.7,5.4,44,0.00,,,0.00,VWS V13.01,2013-07-15 19:49:00,
2013-07-15 14:54:00,88.3,63.0,30.04,South,184,7.6,7.6,43,0.00,,,0.00,VWS V13.01,2013-07-15 19:54:00,
2013-07-15 14:59:00,88.1,64.1,30.04,ENE,76,3.6,5.4,45,0.00,,,0.00,VWS V13.01,2013-07-15 19:59:00,
2013-07-15 15:04:00,89.0,65.0,30.04,West,272,2.2,5.8,45,0.00,,,0.00,VWS V13.01,2013-07-15 20:04:00,
2013-07-15 15:09:00,89.8,64.3,30.04,ESE,119,3.6,7.6,43,0.00,,,0.00,VWS V13.01,2013-07-15 20:09:00,
2013-07-15 15:15:00,88.9,63.5,30.04,SE,127,4.0,4.0,43,0.00,,,0.00,VWS V13.01,2013-07-15 20:15:00,
2013-07-15 15:20:00,88.7,62.7,30.04,South,174,6.7,6.7,42,0.00,,,0.00,VWS V13.01,2013-07-15 20:20:00,
2013-07-15 15:25:00,89.2,63.2,30.04,South,181,5.4,5.4,42,0.00,,,0.00,VWS V13.01,2013-07-15 20:25:00,
2013-07-15 15:30:00,89.0,63.0,30.04,WSW,244,3.6,5.8,42,0.00,,,0.00,VWS V13.01,2013-07-15 20:30:00,
2013-07-15 15:35:00,88.9,62.8,30.04,South,191,5.4,5.8,42,0.00,,,0.00,VWS V13.01,2013-07-15 20:35:00,
2013-07-15 15:40:00,88.7,62.7,30.04,SSE,166,3.6,6.3,42,0.00,,,0.00,VWS V13.01,2013-07-15 20:40:00,
2013-07-15 15:45:00,88.9,62.8,30.04,ESE,118,4.9,4.9,42,0.00,,,0.00,VWS V13.01,2013-07-15 20:45:00,
2013-07-15 15:50:00,89.4,63.3,30.04,SE,127,4.0,4.9,42,0.00,,,0.00,VWS V13.01,2013-07-15 20:50:00,
2013-07-15 15:56:00,89.2,62.5,30.04,SE,132,3.6,5.8,41,0.00,,,0.00,VWS V13.01,2013-07-15 20:56:00,
2013-07-15 16:01:00,89.0,63.0,30.04,South,191,6.3,6.3,42,0.00,,,0.00,VWS V13.01,2013-07-15 21:01:00,
2013-07-15 16:06:00,88.9,64.2,30.04,SSE,164,4.0,5.4,44,0.00,,,0.00,VWS V13.01,2013-07-15 21:06:00,
2013-07-15 16:11:00,89.2,63.2,30.04,SE,129,4.0,5.4,42,0.00,,,0.00,VWS V13.01,2013-07-15 21:11:00,
2013-07-15 16:16:00,89.4,63.3,30.04,SE,130,3.1,4.9,42,0.00,,,0.00,VWS V13.01,2013-07-15 21:16:00,
2013-07-15 16:21:00,89.8,63.0,30.04,SE,130,3.6,5.4,41,0.00,,,0.00,VWS V13.01,2013-07-15 21:21:00,
2013-07-15 16:26:00,90.1,63.3,30.04,East,100,3.1,3.1,41,0.00,,,0.00,VWS V13.01,2013-07-15 21:26:00,
2013-07-15 16:32:00,89.8,62.2,30.01,SE,131,7.6,7.6,40,0.00,,,0.00,VWS V13.01,2013-07-15 21:32:00,
2013-07-15 16:37:00,89.8,63.0,30.01,SSE,156,8.3,8.3,41,0.00,,,0.00,VWS V13.01,2013-07-15 21:37:00,
2013-07-15 16:42:00,89.6,62.1,30.01,SSE,162,4.0,4.9,40,0.00,,,0.00,VWS V13.01,2013-07-15 21:42:00,
2013-07-15 16:47:00,89.4,61.9,30.01,East,100,8.7,8.7,40,0.00,,,0.00,VWS V13.01,2013-07-15 21:47:00,
2013-07-15 16:52:00,89.2,62.5,30.01,SSE,155,5.8,8.1,41,0.00,,,0.00,VWS V13.01,2013-07-15 21:52:00,
2013-07-15 16:57:00,88.7,62.7,30.01,ESE,117,6.3,6.3,42,0.00,,,0.00,VWS V13.01,2013-07-15 21:57:00,
2013-07-15 17:02:00,88.0,62.0,30.01,SSE,164,5.4,5.4,42,0.00,,,0.00,VWS V13.01,2013-07-15 22:02:00,
2013-07-15 17:08:00,87.4,62.2,30.01,SE,138,2.7,5.8,43,0.00,,,0.00,VWS V13.01,2013-07-15 22:08:00,
2013-07-15 17:13:00,87.1,62.5,30.01,SE,135,3.6,3.6,44,0.00,,,0.00,VWS V13.01,2013-07-15 22:13:00,
2013-07-15 17:18:00,86.9,61.7,30.01,SSE,154,4.9,5.8,43,0.00,,,0.00,VWS V13.01,2013-07-15 22:18:00,
2013-07-15 17:23:00,87.1,62.5,30.01,South,176,5.4,5.4,44,0.00,,,0.00,VWS V13.01,2013-07-15 22:23:00,
2013-07-15 17:28:00,87.6,63.0,30.01,SSW,206,3.6,4.9,44,0.00,,,0.00,VWS V13.01,2013-07-15 22:28:00,
2013-07-15 17:33:00,87.8,63.2,30.01,SSW,193,2.7,5.4,44,0.00,,,0.00,VWS V13.01,2013-07-15 22:33:00,
2013-07-15 17:38:00,87.6,63.7,30.01,SSE,150,2.7,2.7,45,0.00,,,0.00,VWS V13.01,2013-07-15 22:38:00,
2013-07-15 17:43:00,87.4,63.5,30.01,SE,143,2.7,8.3,45,0.00,,,0.00,VWS V13.01,2013-07-15 22:43:00,
2013-07-15 17:48:00,87.2,64.6,30.01,South,169,4.0,6.3,47,0.00,,,0.00,VWS V13.01,2013-07-15 22:48:00,
2013-07-15 17:53:00,87.4,64.1,30.01,SE,143,3.6,3.6,46,0.00,,,0.00,VWS V13.01,2013-07-15 22:53:00,
2013-07-15 17:58:00,87.6,63.0,30.01,South,174,5.8,5.8,44,0.00,,,0.00,VWS V13.01,2013-07-15 22:58:00,
2013-07-15 18:03:00,87.8,63.2,30.01,ESE,121,4.0,4.9,44,0.00,,,0.00,VWS V13.01,2013-07-15 23:03:00,
2013-07-15 18:09:00,88.1,63.5,30.01,SSW,195,3.6,5.8,44,0.00,,,0.00,VWS V13.01,2013-07-15 23:09:00,
2013-07-15 18:14:00,88.3,63.7,30.01,SSE,153,2.7,3.6,44,0.00,,,0.00,VWS V13.01,2013-07-15 23:14:00,
2013-07-15 18:19:00,88.5,63.8,30.01,SSE,158,5.8,5.8,44,0.00,,,0.00,VWS V13.01,2013-07-15 23:19:00,
2013-07-15 18:25:00,88.5,63.2,30.01,SE,140,3.1,3.1,43,0.00,,,0.00,VWS V13.01,2013-07-15 23:25:00,
2013-07-15 18:30:00,88.7,63.3,30.01,ESE,121,7.2,7.2,43,0.00,,,0.00,VWS V13.01,2013-07-15 23:30:00,
2013-07-15 18:35:00,88.3,63.7,30.01,SE,140,3.1,5.8,44,0.00,,,0.00,VWS V13.01,2013-07-15 23:35:00,
2013-07-15 18:40:00,86.9,63.0,30.01,SE,132,4.0,7.6,45,0.00,,,0.00,VWS V13.01,2013-07-15 23:40:00,
2013-07-15 18:45:00,85.4,63.5,30.01,SSE,168,5.4,5.8,48,0.00,,,0.00,VWS V13.01,2013-07-15 23:45:00,
2013-07-15 18:50:00,84.5,63.3,30.01,South,170,3.1,3.1,49,0.00,,,0.00,VWS V13.01,2013-07-15 23:50:00,
2013-07-15 18:55:00,83.8,63.2,30.01,South,187,5.4,5.4,50,0.00,,,0.00,VWS V13.01,2013-07-15 23:55:00,
2013-07-15 19:00:00,83.5,62.9,30.04,South,171,3.6,3.6,50,0.00,,,0.00,VWS V13.01,2013-07-16 00:00:00,
2013-07-15 19:06:00,83.5,62.9,30.04,South,176,3.1,3.1,50,0.00,,,0.00,VWS V13.01,2013-07-16 00:06:00,
2013-07-15 19:11:00,84.0,62.8,30.04,South,171,0.0,0.0,49,0.00,,,0.00,VWS V13.01,2013-07-16 00:11:00,
2013-07-15 19:16:00,84.7,63.5,30.04,South,171,0.0,0.0,49,0.00,,,0.00,VWS V13.01,2013-07-16 00:16:00,
2013-07-15 19:21:00,85.4,64.1,30.04,South,171,0.0,0.0,49,0.00,,,0.00,VWS V13.01,2013-07-16 00:21:00,
2013-07-15 19:27:00,85.8,64.4,30.04,South,171,0.0,0.0,49,0.00,,,0.00,VWS V13.01,2013-07-16 00:27:00,
2013-07-15 19:32:00,85.8,63.9,30.04,ENE,60,0.0,0.0,48,0.00,,,0.00,VWS V13.01,2013-07-16 00:32:00,
2013-07-15 19:37:00,85.6,64.3,30.04,ENE,60,0.0,0.0,49,0.00,,,0.00,VWS V13.01,2013-07-16 00:37:00,
2013-07-15 19:43:00,85.6,64.3,30.04,ENE,60,0.0,0.0,49,0.00,,,0.00,VWS V13.01,2013-07-16 00:43:00,
2013-07-15 19:48:00,85.8,63.9,30.04,ENE,60,0.0,0.0,48,0.00,,,0.00,VWS V13.01,2013-07-16 00:48:00,
2013-07-15 19:53:00,85.8,64.4,30.04,ENE,60,0.0,0.0,49,0.00,,,0.00,VWS V13.01,2013-07-16 00:53:00,
2013-07-15 19:58:00,85.8,64.4,30.04,ENE,60,0.0,0.0,49,0.00,,,0.00,VWS V13.01,2013-07-16 00:58:00,
2013-07-15 20:03:00,85.6,64.9,30.04,NE,47,2.7,2.7,50,0.00,,,0.00,VWS V13.01,2013-07-16 01:03:00,
2013-07-15 20:09:00,85.1,64.4,30.04,NE,42,3.6,5.4,50,0.00,,,0.00,VWS V13.01,2013-07-16 01:09:00,
2013-07-15 20:14:00,84.7,64.0,30.04,NE,51,3.6,5.8,50,0.00,,,0.00,VWS V13.01,2013-07-16 01:14:00,
2013-07-15 20:19:00,84.9,64.8,30.04,ENE,63,3.6,5.4,51,0.00,,,0.00,VWS V13.01,2013-07-16 01:19:00,
2013-07-15 20:24:00,84.7,64.6,30.04,NE,47,3.6,3.6,51,0.00,,,0.00,VWS V13.01,2013-07-16 01:24:00,
2013-07-15 20:29:00,84.4,64.3,30.04,ENE,70,5.8,5.8,51,0.00,,,0.00,VWS V13.01,2013-07-16 01:29:00,
2013-07-15 20:34:00,84.4,64.3,30.04,ENE,72,2.7,4.9,51,0.00,,,0.00,VWS V13.01,2013-07-16 01:34:00,
2013-07-15 20:39:00,84.0,63.9,30.04,NE,55,4.0,5.4,51,0.00,,,0.00,VWS V13.01,2013-07-16 01:39:00,
2013-07-15 20:45:00,83.8,64.3,30.04,NE,42,2.7,3.1,52,0.00,,,0.00,VWS V13.01,2013-07-16 01:45:00,
2013-07-15 20:50:00,83.6,64.2,30.04,NE,53,2.2,2.7,52,0.00,,,0.00,VWS V13.01,2013-07-16 01:50:00,
2013-07-15 20:55:00,83.3,64.4,30.04,NNE,26,2.7,3.1,53,0.00,,,0.00,VWS V13.01,2013-07-16 01:55:00,
2013-07-15 21:00:00,83.1,64.2,30.07,NE,45,2.7,2.7,53,0.00,,,0.00,VWS V13.01,2013-07-16 02:00:00,
2013-07-15 21:05:00,82.9,64.6,30.07,NE,49,0.0,0.0,54,0.00,,,0.00,VWS V13.01,2013-07-16 02:05:00,
2013-07-15 21:11:00,82.7,64.4,30.07,SE,128,4.0,10.5,54,0.00,,,0.00,VWS V13.01,2013-07-16 02:11:00,
2013-07-15 21:16:00,82.4,63.5,30.07,ENE,69,5.4,7.6,53,0.00,,,0.00,VWS V13.01,2013-07-16 02:16:00,
2013-07-15 21:21:00,82.0,63.8,30.07,ESE,122,4.0,6.3,54,0.00,,,0.00,VWS V13.01,2013-07-16 02:21:00,
2013-07-15 21:26:00,81.7,64.5,30.07,ESE,105,6.3,7.2,56,0.00,,,0.00,VWS V13.01,2013-07-16 02:26:00,
2013-07-15 21:31:00,81.3,64.6,30.07,NE,53,3.1,3.6,57,0.00,,,0.00,VWS V13.01,2013-07-16 02:31:00,
2013-07-15 21:36:00,80.9,65.3,30.07,NE,36,2.7,4.0,59,0.00,,,0.00,VWS V13.01,2013-07-16 02:36:00,
2013-07-15 21:41:00,80.8,65.1,30.07,NNE,31,3.6,3.6,59,0.00,,,0.00,VWS V13.01,2013-07-16 02:41:00,
2013-07-15 21:46:00,80.4,65.3,30.10,NE,39,2.7,3.6,60,0.00,,,0.00,VWS V13.01,2013-07-16 02:46:00,
2013-07-15 21:51:00,80.2,65.6,30.10,NE,37,3.1,4.0,61,0.00,,,0.00,VWS V13.01,2013-07-16 02:51:00,
2013-07-15 21:57:00,79.9,65.7,30.10,NNE,21,3.6,4.0,62,0.00,,,0.00,VWS V13.01,2013-07-16 02:57:00,
2013-07-15 22:02:00,79.5,65.8,30.10,NE,51,3.1,3.1,63,0.00,,,0.00,VWS V13.01,2013-07-16 03:02:00,
2013-07-15 22:07:00,79.3,65.6,30.10,NNE,15,2.2,2.7,63,0.00,,,0.00,VWS V13.01,2013-07-16 03:07:00,
2013-07-15 22:12:00,79.0,65.8,30.10,NNE,20,0.0,3.6,64,0.00,,,0.00,VWS V13.01,2013-07-16 03:12:00,
2013-07-15 22:17:00,78.8,65.6,30.10,NE,55,0.0,0.0,64,0.00,,,0.00,VWS V13.01,2013-07-16 03:17:00,
2013-07-15 22:22:00,78.8,66.0,30.10,NE,43,2.2,2.7,65,0.00,,,0.00,VWS V13.01,2013-07-16 03:22:00,
2013-07-15 22:27:00,78.6,65.4,30.10,NE,40,0.0,2.2,64,0.00,,,0.00,VWS V13.01,2013-07-16 03:27:00,
2013-07-15 22:32:00,78.4,65.7,30.10,NE,43,0.0,0.0,65,0.00,,,0.00,VWS V13.01,2013-07-16 03:32:00,
2013-07-15 22:37:00,78.2,65.5,30.10,NE,43,0.0,0.0,65,0.00,,,0.00,VWS V13.01,2013-07-16 03:37:00,
2013-07-15 22:42:00,78.2,65.5,30.10,NE,43,0.0,0.0,65,0.00,,,0.00,VWS V13.01,2013-07-16 03:42:00,
2013-07-15 22:48:00,78.1,65.8,30.10,NNE,27,0.0,0.0,66,0.00,,,0.00,VWS V13.01,2013-07-16 03:48:00,
2013-07-15 22:53:00,77.9,65.6,30.10,NNE,27,0.0,0.0,66,0.00,,,0.00,VWS V13.01,2013-07-16 03:53:00,
2013-07-15 22:58:00,77.7,65.4,30.10,NNE,27,0.0,0.0,66,0.00,,,0.00,VWS V13.01,2013-07-16 03:58:00,
2013-07-15 23:01:00,77.7,65.4,30.10,NNE,27,0.0,0.0,66,0.00,,,0.00,VWS V13.01,2013-07-16 04:01:00,
2013-07-15 23:06:00,77.5,65.3,30.10,NNE,27,0.0,0.0,66,0.00,,,0.00,VWS V13.01,2013-07-16 04:06:00,
2013-07-15 23:11:00,77.5,65.3,30.10,SSE,147,0.0,0.0,66,0.00,,,0.00,VWS V13.01,2013-07-16 04:11:00,
2013-07-15 23:16:00,77.7,65.9,30.13,South,172,3.6,4.0,67,0.00,,,0.00,VWS V13.01,2013-07-16 04:16:00,
2013-07-15 23:21:00,77.9,65.6,30.13,South,188,2.7,2.7,66,0.00,,,0.00,VWS V13.01,2013-07-16 04:21:00,
2013-07-15 23:26:00,77.9,65.6,30.13,South,188,0.0,0.0,66,0.00,,,0.00,VWS V13.01,2013-07-16 04:26:00,
2013-07-15 23:31:00,77.9,66.1,30.10,SSE,150,0.0,2.2,67,0.00,,,0.00,VWS V13.01,2013-07-16 04:31:00,
2013-07-15 23:36:00,78.1,66.2,30.10,South,171,3.6,3.6,67,0.00,,,0.00,VWS V13.01,2013-07-16 04:36:00,
2013-07-15 23:41:00,78.2,66.4,30.10,SSE,150,2.2,3.1,67,0.00,,,0.00,VWS V13.01,2013-07-16 04:41:00,
2013-07-15 23:46:00,78.4,66.1,30.13,ESE,123,2.7,2.7,66,0.00,,,0.00,VWS V13.01,2013-07-16 04:46:00,
2013-07-15 23:51:00,78.4,66.1,30.13,SSE,168,0.0,2.2,66,0.00,,,0.00,VWS V13.01,2013-07-16 04:51:00,
2013-07-15 23:56:00,78.4,66.1,30.13,SSE,168,0.0,0.0,66,0.00,,,0.00,VWS V13.01,2013-07-16 04:56:00,